Location: Unspecified
(51.5147°N, 7.4673°E)
Time: 02:29:58
(UTC+01:00)

Vanguard 1 Rocket - Pass Details

Date: 21 February 2026
Orbit: 653 x 4214 km, 34.3° (Epoch: 12 March)

Event Time Altitude Azimuth Distance (km) Brightness Sun altitude
Rises 14:07:09 0° 233° (SW) 4,258 11.8 25.5°
Reaches altitude 10° 14:09:50 10° 224° (SW) 3,629 11.9 25.3°
Maximum altitude 14:18:24 34° 163° (SSE) 3,166 11.1 24.8°
Drops below altitude 10° 14:33:11 10° 108° (ESE) 6,269 11.6 23.7°
Sets 14:39:44 0° 101° (ESE) 7,792 12.0 23.2°
